Weather History for KJAN - January, 2013

Change the Weather History Date:

Thursday, January 24, 2013

  Actual Average Record
Temperature  
Mean Temperature 56 °F 46 °F  
Max Temperature 67 °F 57 °F 82 °F (1972)
Min Temperature 45 °F 35 °F 1 °F (1948)
Degree Days  
Heating Degree Days 9 19  
Month to date heating degree days 416 475  
Since 1 July heating degree days 1277 1425  
Cooling Degree Days 0 0  
Month to date cooling degree days 8 0  
Year to date cooling degree days 8 0  
Growing Degree Days 6 (Base 50)    
Moisture  
Dew Point 52 °F    
Average Humidity 81    
Maximum Humidity 93    
Minimum Humidity 68    
Precipitation  
Precipitation 0.00 in 0.17 in 2.30 in (1990)
Month to date precipitation 7.49 3.73  
Year to date precipitation 7.49 3.73  
Sea Level Pressure  
Sea Level Pressure 30.26 in    
Wind  
Wind Speed 5 mph (ESE)    
Max Wind Speed 9 mph    
Max Gust Speed 17 mph    
Visibility 8 miles    
Events      
T = Trace of Precipitation, MM = Missing Value Source: NWS Daily Summary

Daily Weather History Graph

Daily Weather History Graph

Search for Another Location

Airport or City:

Trip Planner

Search our weather history database for the weather conditions in past years. The results will help you decide how hot, cold, wet, or windy it might be!

Date:

Astronomy

Jan. 24, 2013 Rise Set
Actual Time 6:58 AM CST 5:26 PM CST
Civil Twilight 6:32 AM CST 5:52 PM CST
Nautical Twilight 6:02 AM CST 6:22 PM CST
Astronomical Twilight 5:33 AM CST 6:51 PM CST
Moon 3:30 PM CST (1/24) 4:54 AM CST (1/24)
Length of Visible Light 11h 20m
Length of Day
10h 27m
Waxing Gibbous, 94% of the Moon is Illuminated
Jan 24
Waxing Gibbous
Jan 26
Full
Feb 3
Last Quarter
Feb 10
New
Feb 17
First Quarter

Hourly Weather History & Observations

Time (CST) Temp. Dew Point Humidity Pressure Visibility Wind Dir Wind Speed Gust Speed Precip Events Conditions
12:54 AM 50.0 °F 44.1 °F 80% 30.26 in 10.0 mi SSW 4.6 mph - N/A   Clear
1:54 AM 51.1 °F 46.0 °F 83% 30.26 in 10.0 mi SSW 3.5 mph - N/A   Clear
2:54 AM 50.0 °F 46.0 °F 86% 30.26 in 10.0 mi SSW 4.6 mph - N/A   Clear
3:54 AM 46.9 °F 45.0 °F 93% 30.26 in 9.0 mi Calm Calm - N/A   Clear
4:54 AM 46.9 °F 45.0 °F 93% 30.26 in 7.0 mi South 4.6 mph - N/A   Scattered Clouds
5:54 AM 48.0 °F 46.0 °F 93% 30.27 in 7.0 mi SSE 3.5 mph - N/A   Scattered Clouds
6:35 AM 48.2 °F 46.4 °F 93% 30.28 in 7.0 mi South 5.8 mph - N/A   Mostly Cloudy
6:54 AM 50.0 °F 48.0 °F 93% 30.28 in 8.0 mi South 4.6 mph - N/A   Mostly Cloudy
7:54 AM 51.1 °F 48.9 °F 92% 30.29 in 6.0 mi South 5.8 mph - N/A   Mostly Cloudy
8:54 AM 55.9 °F 52.0 °F 87% 30.31 in 9.0 mi SW 5.8 mph - N/A   Mostly Cloudy
9:28 AM 57.2 °F 51.8 °F 82% 30.33 in 10.0 mi North 6.9 mph - N/A   Overcast
9:54 AM 57.0 °F 52.0 °F 83% 30.33 in 10.0 mi NNE 5.8 mph - N/A   Overcast
10:35 AM 57.2 °F 51.8 °F 82% 30.33 in 10.0 mi North 8.1 mph - N/A   Overcast
10:54 AM 57.9 °F 52.0 °F 81% 30.32 in 10.0 mi Calm Calm - N/A   Overcast
11:54 AM 61.0 °F 54.0 °F 78% 30.29 in 10.0 mi Calm Calm - N/A   Mostly Cloudy
12:39 PM 62.6 °F 53.6 °F 72% 30.26 in 10.0 mi Calm Calm - N/A   Scattered Clouds
12:54 PM 64.9 °F 55.0 °F 70% 30.25 in 10.0 mi Calm Calm - N/A   Mostly Cloudy
1:29 PM 66.2 °F 55.4 °F 68% 30.24 in 10.0 mi North 6.9 mph - N/A   Mostly Cloudy
1:54 PM 64.9 °F 55.0 °F 70% 30.22 in 10.0 mi North 8.1 mph - N/A   Mostly Cloudy
2:54 PM 66.0 °F 55.0 °F 68% 30.21 in 10.0 mi North 6.9 mph - N/A   Scattered Clouds
3:54 PM 63.0 °F 55.0 °F 75% 30.22 in 9.0 mi North 9.2 mph - N/A   Overcast
4:54 PM 62.1 °F 55.0 °F 78% 30.22 in 9.0 mi NE 5.8 mph - N/A   Mostly Cloudy
5:54 PM 60.1 °F 55.0 °F 83% 30.24 in 8.0 mi ENE 8.1 mph - N/A   Overcast
6:54 PM 59.0 °F 55.0 °F 87% 30.23 in 7.0 mi East 3.5 mph - N/A   Mostly Cloudy
7:54 PM 57.0 °F 54.0 °F 89% 30.22 in 6.0 mi ESE 5.8 mph - N/A   Mostly Cloudy
8:54 PM 57.9 °F 55.0 °F 90% 30.22 in 6.0 mi East 3.5 mph - N/A   Mostly Cloudy
9:54 PM 55.9 °F 54.0 °F 93% 30.21 in 5.0 mi Calm Calm - N/A   Mostly Cloudy
10:54 PM 57.0 °F 54.0 °F 89% 30.21 in 6.0 mi ESE 5.8 mph - N/A   Mostly Cloudy
11:54 PM 57.0 °F 54.0 °F 89% 30.20 in 6.0 mi SE 8.1 mph - N/A   Overcast